Time,TemperatureF,DewpointF,PressureIn,WindDirection,WindDirectionDegrees,WindSpeedMPH,WindSpeedGustMPH,Humidity,HourlyPrecipIn,Conditions,Clouds,dailyrainin,SoftwareType,DateUTC
2013-04-19 05:53:00,68.5,52.8,29.73,South,180,3.1,7.4,57,0.00,,,0.00,WUHU216TE923,2013-04-19 09:53:00,
2013-04-19 05:54:00,68.5,52.8,29.73,South,180,3.1,7.4,57,0.00,,,0.00,WUHU216TE923,2013-04-19 09:54:00,
2013-04-19 05:59:00,68.5,52.8,29.73,South,180,3.1,7.4,57,0.00,,,0.00,WUHU216TE923,2013-04-19 09:59:00,
2013-04-19 06:04:00,68.5,52.8,29.72,South,180,3.1,4.1,57,0.00,,,0.00,WUHU216TE923,2013-04-19 10:04:00,
2013-04-19 06:09:00,68.5,52.8,29.72,South,180,3.1,4.1,57,0.00,,,0.00,WUHU216TE923,2013-04-19 10:09:00,
2013-04-19 06:14:00,68.5,52.8,29.72,South,180,3.1,4.1,57,0.00,,,0.00,WUHU216TE923,2013-04-19 10:14:00,
2013-04-19 06:19:00,68.5,52.8,29.72,South,180,3.1,4.1,57,0.00,,,0.00,WUHU216TE923,2013-04-19 10:19:00,
2013-04-19 06:24:00,68.7,53.0,29.71,South,180,2.8,5.5,57,0.00,,,0.00,WUHU216TE923,2013-04-19 10:24:00,
2013-04-19 06:29:00,68.7,53.0,29.71,South,180,2.8,5.5,57,0.00,,,0.00,WUHU216TE923,2013-04-19 10:29:00,
2013-04-19 06:34:00,69.1,52.9,29.71,South,180,3.7,5.2,56,0.00,,,0.00,WUHU216TE923,2013-04-19 10:34:00,
2013-04-19 06:39:00,69.1,52.9,29.71,South,180,3.7,5.2,56,0.00,,,0.00,WUHU216TE923,2013-04-19 10:39:00,
2013-04-19 06:44:00,69.4,53.7,29.71,SSE,158,4.5,4.8,57,0.00,,,0.00,WUHU216TE923,2013-04-19 10:44:00,
2013-04-19 06:49:00,69.4,53.7,29.71,SSE,158,4.5,4.8,57,0.00,,,0.00,WUHU216TE923,2013-04-19 10:49:00,
2013-04-19 06:54:00,69.4,53.7,29.71,SSE,158,3.9,4.8,57,0.00,,,0.00,WUHU216TE923,2013-04-19 10:54:00,
2013-04-19 06:59:00,69.4,53.7,29.71,SSE,158,3.9,4.8,57,0.00,,,0.00,WUHU216TE923,2013-04-19 10:59:00,
2013-04-19 07:04:00,69.4,53.7,29.73,NW,315,4.7,12.7,57,0.00,,,0.00,WUHU216TE923,2013-04-19 11:04:00,
2013-04-19 07:09:00,69.4,53.7,29.73,NW,315,4.7,12.7,57,0.00,,,0.00,WUHU216TE923,2013-04-19 11:09:00,
2013-04-19 07:14:00,68.0,55.1,29.73,SSE,158,5.2,6.9,63,0.00,,,0.00,WUHU216TE923,2013-04-19 11:14:00,
2013-04-19 07:19:00,68.0,55.1,29.73,SSE,158,5.2,6.9,63,0.00,,,0.00,WUHU216TE923,2013-04-19 11:19:00,
2013-04-19 07:24:00,67.5,55.9,29.71,SE,135,4.4,4.7,66,0.00,,,0.00,WUHU216TE923,2013-04-19 11:24:00,
2013-04-19 07:29:00,67.5,55.9,29.71,SE,135,4.4,4.7,66,0.00,,,0.00,WUHU216TE923,2013-04-19 11:29:00,
2013-04-19 07:34:00,66.0,56.9,29.71,WSW,248,4.3,6.1,72,0.03,,,0.03,WUHU216TE923,2013-04-19 11:34:00,
2013-04-19 07:39:00,66.0,56.9,29.71,WSW,248,4.3,6.1,72,0.03,,,0.03,WUHU216TE923,2013-04-19 11:39:00,
2013-04-19 07:44:00,66.0,57.6,29.73,NNE,23,3.9,6.3,74,0.05,,,0.05,WUHU216TE923,2013-04-19 11:44:00,
2013-04-19 07:49:00,66.0,57.6,29.73,NNE,23,3.9,6.3,74,0.05,,,0.05,WUHU216TE923,2013-04-19 11:49:00,
2013-04-19 07:54:00,66.6,58.6,29.73,SW,225,5.1,8.0,75,0.11,,,0.11,WUHU216TE923,2013-04-19 11:54:00,
2013-04-19 07:59:00,66.6,58.6,29.73,SW,225,5.1,8.0,75,0.11,,,0.11,WUHU216TE923,2013-04-19 11:59:00,
2013-04-19 08:04:00,66.7,59.0,29.75,ENE,68,4.7,7.9,76,0.14,,,0.14,WUHU216TE923,2013-04-19 12:04:00,
2013-04-19 08:09:00,66.7,59.0,29.75,ENE,68,4.7,7.9,76,0.14,,,0.14,WUHU216TE923,2013-04-19 12:09:00,
2013-04-19 08:14:00,66.4,58.7,29.75,SSW,203,5.6,11.6,76,0.14,,,0.14,WUHU216TE923,2013-04-19 12:14:00,
2013-04-19 08:19:00,66.4,58.7,29.75,SSW,203,5.6,11.6,76,0.14,,,0.14,WUHU216TE923,2013-04-19 12:19:00,
2013-04-19 08:24:00,66.2,59.2,29.76,SE,135,5.2,11.1,78,0.14,,,0.17,WUHU216TE923,2013-04-19 12:24:00,
2013-04-19 08:29:00,66.2,59.2,29.76,SE,135,5.2,11.1,78,0.14,,,0.17,WUHU216TE923,2013-04-19 12:29:00,
2013-04-19 08:34:00,66.0,59.7,29.76,SSW,203,3.7,9.0,80,0.15,,,0.20,WUHU216TE923,2013-04-19 12:34:00,
2013-04-19 08:39:00,66.0,59.7,29.76,SSW,203,3.7,9.0,80,0.15,,,0.20,WUHU216TE923,2013-04-19 12:39:00,
2013-04-19 08:44:00,65.7,59.8,29.75,SSE,158,3.3,4.4,81,0.20,,,0.31,WUHU216TE923,2013-04-19 12:44:00,
2013-04-19 08:49:00,65.7,59.8,29.75,SSE,158,3.3,4.4,81,0.20,,,0.31,WUHU216TE923,2013-04-19 12:49:00,
2013-04-19 08:54:00,65.5,59.9,29.75,South,180,4.4,9.7,82,0.22,,,0.33,WUHU216TE923,2013-04-19 12:54:00,
2013-04-19 08:59:00,65.5,59.9,29.75,South,180,4.4,9.7,82,0.22,,,0.33,WUHU216TE923,2013-04-19 12:59:00,
2013-04-19 09:04:00,65.5,60.6,29.76,SW,225,3.3,4.6,84,0.25,,,0.39,WUHU216TE923,2013-04-19 13:04:00,
2013-04-19 09:09:00,65.5,60.6,29.76,SW,225,3.3,4.6,84,0.25,,,0.39,WUHU216TE923,2013-04-19 13:09:00,
2013-04-19 09:14:00,65.3,60.4,29.76,SW,225,3.7,6.8,84,0.25,,,0.42,WUHU216TE923,2013-04-19 13:14:00,
2013-04-19 09:19:00,65.3,60.4,29.76,SW,225,3.7,6.8,84,0.25,,,0.42,WUHU216TE923,2013-04-19 13:19:00,
2013-04-19 09:24:00,64.9,59.6,29.78,WSW,248,3.0,4.8,83,0.24,,,0.44,WUHU216TE923,2013-04-19 13:24:00,
2013-04-19 09:29:00,64.9,59.6,29.78,WSW,248,3.0,4.8,83,0.24,,,0.44,WUHU216TE923,2013-04-19 13:29:00,
2013-04-19 09:34:00,64.2,59.0,29.78,South,180,3.3,4.5,83,0.22,,,0.44,WUHU216TE923,2013-04-19 13:34:00,
2013-04-19 09:39:00,64.2,59.0,29.78,South,180,3.3,4.5,83,0.22,,,0.44,WUHU216TE923,2013-04-19 13:39:00,
2013-04-19 09:44:00,64.2,59.3,29.78,WNW,293,2.8,3.4,84,0.17,,,0.50,WUHU216TE923,2013-04-19 13:44:00,
2013-04-19 09:49:00,64.2,59.3,29.78,WNW,293,2.8,3.4,84,0.17,,,0.50,WUHU216TE923,2013-04-19 13:49:00,
2013-04-19 09:54:00,64.0,58.8,29.78,South,180,2.8,2.9,83,0.11,,,0.50,WUHU216TE923,2013-04-19 13:54:00,
2013-04-19 09:59:00,64.0,58.8,29.78,South,180,2.8,2.9,83,0.11,,,0.50,WUHU216TE923,2013-04-19 13:59:00,
2013-04-19 10:04:00,63.9,58.3,29.77,SW,225,1.6,3.9,82,0.11,,,0.50,WUHU216TE923,2013-04-19 14:04:00,
2013-04-19 10:09:00,63.9,58.3,29.77,SW,225,1.6,3.9,82,0.11,,,0.50,WUHU216TE923,2013-04-19 14:09:00,
2013-04-19 10:14:00,63.5,58.0,29.77,WSW,248,2.1,3.4,82,0.09,,,0.53,WUHU216TE923,2013-04-19 14:14:00,
2013-04-19 10:19:00,63.5,58.0,29.77,WSW,248,2.1,3.4,82,0.09,,,0.53,WUHU216TE923,2013-04-19 14:19:00,
2013-04-19 10:24:00,63.1,56.9,29.76,West,270,2.2,5.9,80,0.11,,,0.55,WUHU216TE923,2013-04-19 14:24:00,
2013-04-19 10:29:00,63.1,56.9,29.76,West,270,2.2,5.9,80,0.11,,,0.55,WUHU216TE923,2013-04-19 14:29:00,
2013-04-19 10:34:00,62.4,56.2,29.76,WSW,248,2.8,4.4,80,0.08,,,0.58,WUHU216TE923,2013-04-19 14:34:00,
2013-04-19 10:39:00,62.4,56.2,29.76,WSW,248,2.8,4.4,80,0.08,,,0.58,WUHU216TE923,2013-04-19 14:39:00,
2013-04-19 10:44:00,61.7,55.2,29.78,WSW,248,3.3,6.5,79,0.08,,,0.58,WUHU216TE923,2013-04-19 14:44:00,
2013-04-19 10:49:00,61.7,55.2,29.78,WSW,248,3.3,6.5,79,0.08,,,0.58,WUHU216TE923,2013-04-19 14:49:00,
2013-04-19 10:54:00,61.2,55.0,29.78,West,270,2.7,4.6,80,0.11,,,0.61,WUHU216TE923,2013-04-19 14:54:00,
2013-04-19 10:59:00,61.2,55.0,29.78,West,270,2.7,4.6,80,0.11,,,0.61,WUHU216TE923,2013-04-19 14:59:00,
2013-04-19 11:04:00,60.4,54.3,29.81,West,270,2.6,3.9,80,0.11,,,0.64,WUHU216TE923,2013-04-19 15:04:00,
2013-04-19 11:09:00,60.4,54.3,29.81,West,270,2.6,3.9,80,0.11,,,0.64,WUHU216TE923,2013-04-19 15:09:00,
2013-04-19 11:14:00,60.1,54.3,29.81,SW,225,2.4,3.6,81,0.19,,,0.72,WUHU216TE923,2013-04-19 15:14:00,
2013-04-19 11:19:00,60.1,54.3,29.81,SW,225,2.4,3.6,81,0.19,,,0.72,WUHU216TE923,2013-04-19 15:19:00,
2013-04-19 11:24:00,59.9,54.1,29.84,SW,225,2.3,3.8,81,0.23,,,0.78,WUHU216TE923,2013-04-19 15:24:00,
2013-04-19 11:29:00,59.9,54.1,29.84,SW,225,2.3,3.8,81,0.23,,,0.78,WUHU216TE923,2013-04-19 15:29:00,
2013-04-19 11:34:00,60.1,54.0,29.84,SSW,203,1.8,2.1,80,0.25,,,0.83,WUHU216TE923,2013-04-19 15:34:00,
2013-04-19 11:39:00,60.1,54.0,29.84,SSW,203,1.8,2.1,80,0.25,,,0.83,WUHU216TE923,2013-04-19 15:39:00,
2013-04-19 11:44:00,59.7,52.9,29.85,SW,225,2.0,2.3,78,0.28,,,0.86,WUHU216TE923,2013-04-19 15:44:00,
2013-04-19 11:49:00,59.7,52.9,29.85,SW,225,2.0,2.3,78,0.28,,,0.86,WUHU216TE923,2013-04-19 15:49:00,
2013-04-19 11:54:00,59.4,52.3,29.85,WSW,248,2.1,2.5,77,0.22,,,0.86,WUHU216TE923,2013-04-19 15:54:00,
2013-04-19 11:59:00,59.4,52.3,29.85,WSW,248,2.1,2.5,77,0.22,,,0.86,WUHU216TE923,2013-04-19 15:59:00,
2013-04-19 12:04:00,59.2,52.1,29.85,SW,225,0.7,1.3,77,0.14,,,0.86,WUHU216TE923,2013-04-19 16:04:00,
2013-04-19 12:09:00,59.2,52.1,29.85,SW,225,0.7,1.3,77,0.14,,,0.86,WUHU216TE923,2013-04-19 16:09:00,
2013-04-19 12:14:00,59.2,52.1,29.85,SSW,203,0.7,2.3,77,0.08,,,0.86,WUHU216TE923,2013-04-19 16:14:00,
2013-04-19 12:19:00,59.2,52.1,29.85,SSW,203,0.7,2.3,77,0.08,,,0.86,WUHU216TE923,2013-04-19 16:19:00,
2013-04-19 12:24:00,58.5,50.7,29.85,ENE,68,1.9,6.5,75,0.06,,,0.89,WUHU216TE923,2013-04-19 16:24:00,
2013-04-19 12:29:00,58.5,50.7,29.85,ENE,68,1.9,6.5,75,0.06,,,0.89,WUHU216TE923,2013-04-19 16:29:00,
2013-04-19 12:34:00,58.1,50.0,29.85,SW,225,1.7,4.2,74,0.03,,,0.89,WUHU216TE923,2013-04-19 16:34:00,
2013-04-19 12:39:00,58.1,50.0,29.85,SW,225,1.7,4.2,74,0.03,,,0.89,WUHU216TE923,2013-04-19 16:39:00,
2013-04-19 12:44:00,57.4,49.3,29.86,WNW,293,2.6,2.6,74,0.03,,,0.89,WUHU216TE923,2013-04-19 16:44:00,
2013-04-19 12:49:00,57.4,49.3,29.86,WNW,293,2.6,2.6,74,0.03,,,0.89,WUHU216TE923,2013-04-19 16:49:00,
2013-04-19 12:54:00,57.0,48.5,29.86,SW,225,2.4,2.4,73,0.03,,,0.89,WUHU216TE923,2013-04-19 16:54:00,
2013-04-19 12:59:00,57.0,48.5,29.86,SW,225,2.4,2.4,73,0.03,,,0.89,WUHU216TE923,2013-04-19 16:59:00,
2013-04-19 13:04:00,56.7,47.9,29.83,WSW,248,2.1,6.8,72,0.03,,,0.89,WUHU216TE923,2013-04-19 17:04:00,
2013-04-19 13:09:00,56.7,47.9,29.83,WSW,248,2.1,6.8,72,0.03,,,0.89,WUHU216TE923,2013-04-19 17:09:00,
2013-04-19 13:14:00,55.8,47.0,29.83,WNW,293,2.0,4.7,72,0.03,,,0.89,WUHU216TE923,2013-04-19 17:14:00,
2013-04-19 13:19:00,55.8,47.0,29.83,WNW,293,2.0,4.7,72,0.03,,,0.89,WUHU216TE923,2013-04-19 17:19:00,
2013-04-19 13:24:00,55.9,47.1,29.84,WSW,248,2.4,4.1,72,0.00,,,0.89,WUHU216TE923,2013-04-19 17:24:00,
2013-04-19 13:29:00,55.9,47.1,29.84,WSW,248,2.4,4.1,72,0.00,,,0.89,WUHU216TE923,2013-04-19 17:29:00,
2013-04-19 13:34:00,56.1,47.7,29.84,NW,315,1.7,2.1,73,0.00,,,0.89,WUHU216TE923,2013-04-19 17:34:00,
2013-04-19 13:39:00,56.1,47.7,29.84,NW,315,1.7,2.1,73,0.00,,,0.89,WUHU216TE923,2013-04-19 17:39:00,
2013-04-19 13:44:00,56.1,47.7,29.84,WSW,248,1.5,2.8,73,0.00,,,0.89,WUHU216TE923,2013-04-19 17:44:00,
2013-04-19 13:49:00,56.1,47.7,29.84,WSW,248,1.5,2.8,73,0.00,,,0.89,WUHU216TE923,2013-04-19 17:49:00,
2013-04-19 13:54:00,55.2,47.2,29.84,SW,225,1.6,2.4,74,0.00,,,0.89,WUHU216TE923,2013-04-19 17:54:00,
2013-04-19 13:59:00,54.9,46.9,29.84,NW,315,1.6,2.4,74,0.00,,,0.89,WUHU216TE923,2013-04-19 17:59:00,
2013-04-19 14:04:00,54.9,46.9,29.88,SSW,203,1.8,4.1,74,0.00,,,0.89,WUHU216TE923,2013-04-19 18:04:00,
2013-04-19 14:10:00,54.9,46.9,29.88,SW,225,1.8,4.1,74,0.00,,,0.89,WUHU216TE923,2013-04-19 18:10:00,
2013-04-19 14:14:00,54.5,46.1,29.88,ENE,68,2.1,3.3,73,0.00,,,0.89,WUHU216TE923,2013-04-19 18:14:00,
2013-04-19 14:19:00,54.5,46.1,29.88,ENE,68,2.1,3.3,73,0.00,,,0.89,WUHU216TE923,2013-04-19 18:19:00,
2013-04-19 14:24:00,54.7,46.7,29.87,NNW,338,1.5,1.9,74,0.00,,,0.89,WUHU216TE923,2013-04-19 18:24:00,
2013-04-19 14:29:00,54.7,46.7,29.87,WNW,293,1.2,1.9,74,0.00,,,0.89,WUHU216TE923,2013-04-19 18:29:00,
2013-04-19 14:34:00,54.0,45.3,29.87,West,270,2.3,5.0,72,0.00,,,0.89,WUHU216TE923,2013-04-19 18:34:00,
2013-04-19 14:39:00,54.0,45.3,29.87,West,270,2.3,5.0,72,0.00,,,0.89,WUHU216TE923,2013-04-19 18:39:00,
2013-04-19 14:44:00,54.1,45.0,29.88,WNW,293,2.2,3.0,71,0.00,,,0.89,WUHU216TE923,2013-04-19 18:44:00,
2013-04-19 14:49:00,54.1,45.0,29.88,WNW,293,2.2,3.0,71,0.00,,,0.89,WUHU216TE923,2013-04-19 18:49:00,
2013-04-19 14:54:00,54.7,45.2,29.88,West,270,1.8,2.3,70,0.00,,,0.89,WUHU216TE923,2013-04-19 18:54:00,
2013-04-19 14:59:00,54.7,45.2,29.88,West,270,1.8,2.3,70,0.00,,,0.89,WUHU216TE923,2013-04-19 18:59:00,
2013-04-19 15:04:00,54.7,44.5,29.85,West,270,0.9,2.0,68,0.00,,,0.89,WUHU216TE923,2013-04-19 19:04:00,
2013-04-19 15:09:00,54.7,44.5,29.85,West,270,0.9,2.0,68,0.00,,,0.89,WUHU216TE923,2013-04-19 19:09:00,
2013-04-19 15:14:00,55.8,44.3,29.85,West,270,0.5,1.3,65,0.00,,,0.89,WUHU216TE923,2013-04-19 19:14:00,
2013-04-19 15:20:00,56.1,44.2,29.85,WNW,293,0.2,1.3,64,0.00,,,0.89,WUHU216TE923,2013-04-19 19:20:00,
2013-04-19 15:25:00,56.3,44.0,29.84,NNE,23,0.5,2.7,63,0.00,,,0.89,WUHU216TE923,2013-04-19 19:25:00,
2013-04-19 15:30:00,57.0,44.2,29.84,NNE,23,1.0,4.1,62,0.00,,,0.89,WUHU216TE923,2013-04-19 19:30:00,
2013-04-19 15:35:00,57.7,43.1,29.84,NW,315,1.6,4.1,58,0.00,,,0.89,WUHU216TE923,2013-04-19 19:35:00,
2013-04-19 15:40:00,57.7,43.1,29.84,NW,315,1.9,2.1,58,0.00,,,0.89,WUHU216TE923,2013-04-19 19:40:00,
2013-04-19 15:45:00,56.8,41.3,29.83,NNE,23,2.0,2.6,56,0.00,,,0.89,WUHU216TE923,2013-04-19 19:45:00,
2013-04-19 15:50:00,56.8,40.9,29.83,NNE,23,2.0,2.6,55,0.00,,,0.89,WUHU216TE923,2013-04-19 19:50:00,
2013-04-19 15:55:00,56.5,39.6,29.83,NNW,338,2.8,2.8,53,0.00,,,0.89,WUHU216TE923,2013-04-19 19:55:00,
2013-04-19 16:00:00,57.2,40.3,29.83,North,0,2.7,3.0,53,0.00,,,0.89,WUHU216TE923,2013-04-19 20:00:00,
2013-04-19 16:05:00,58.5,41.0,29.87,NNW,338,2.8,7.1,52,0.00,,,0.89,WUHU216TE923,2013-04-19 20:05:00,
2013-04-19 16:10:00,58.3,40.8,29.87,NNE,23,2.8,7.1,52,0.00,,,0.89,WUHU216TE923,2013-04-19 20:10:00,
2013-04-19 16:15:00,57.7,40.2,29.87,NNE,23,2.1,6.3,52,0.00,,,0.89,WUHU216TE923,2013-04-19 20:15:00,
2013-04-19 16:20:00,57.7,40.2,29.87,West,270,2.1,6.1,52,0.00,,,0.89,WUHU216TE923,2013-04-19 20:20:00,
2013-04-19 16:25:00,57.2,39.2,29.85,NE,45,2.4,3.2,51,0.00,,,0.89,WUHU216TE923,2013-04-19 20:25:00,
2013-04-19 16:30:00,57.2,39.2,29.85,NNE,23,2.4,3.2,51,0.00,,,0.89,WUHU216TE923,2013-04-19 20:30:00,
2013-04-19 16:35:00,57.0,39.1,29.85,WNW,293,2.0,2.6,51,0.00,,,0.89,WUHU216TE923,2013-04-19 20:35:00,
2013-04-19 16:40:00,56.7,38.3,29.85,North,0,2.3,4.4,50,0.00,,,0.89,WUHU216TE923,2013-04-19 20:40:00,
2013-04-19 16:45:00,57.0,39.1,29.86,NW,315,2.8,5.7,51,0.00,,,0.89,WUHU216TE923,2013-04-19 20:45:00,
2013-04-19 16:50:00,56.7,38.3,29.86,North,0,3.1,5.7,50,0.00,,,0.89,WUHU216TE923,2013-04-19 20:50:00,
2013-04-19 16:55:00,56.3,37.9,29.86,NE,45,3.2,4.8,50,0.00,,,0.89,WUHU216TE923,2013-04-19 20:55:00,
2013-04-19 17:00:00,56.1,37.7,29.86,North,0,3.1,4.5,50,0.00,,,0.89,WUHU216TE923,2013-04-19 21:00:00,
2013-04-19 17:05:00,55.4,36.5,29.88,North,0,3.3,4.5,49,0.00,,,0.89,WUHU216TE923,2013-04-19 21:05:00,
2013-04-19 17:10:00,55.6,36.7,29.88,North,0,3.1,5.2,49,0.00,,,0.89,WUHU216TE923,2013-04-19 21:10:00,
2013-04-19 17:15:00,55.4,36.5,29.88,NNE,23,2.8,5.2,49,0.00,,,0.89,WUHU216TE923,2013-04-19 21:15:00,
2013-04-19 17:20:00,55.4,36.5,29.88,WSW,248,2.6,4.0,49,0.00,,,0.89,WUHU216TE923,2013-04-19 21:20:00,
2013-04-19 17:25:00,55.0,36.2,29.86,NE,45,1.7,2.7,49,0.00,,,0.89,WUHU216TE923,2013-04-19 21:25:00,
2013-04-19 17:30:00,54.7,35.9,29.86,NNE,23,1.5,3.3,49,0.00,,,0.89,WUHU216TE923,2013-04-19 21:30:00,
2013-04-19 17:35:00,54.5,35.7,29.86,NNE,23,1.7,3.3,49,0.00,,,0.89,WUHU216TE923,2013-04-19 21:35:00,
2013-04-19 17:40:00,54.3,36.6,29.86,WNW,293,1.9,3.1,51,0.00,,,0.89,WUHU216TE923,2013-04-19 21:40:00,
2013-04-19 17:45:00,54.5,36.7,29.84,NE,45,2.0,3.4,51,0.00,,,0.89,WUHU216TE923,2013-04-19 21:45:00,
2013-04-19 17:50:00,54.5,35.7,29.84,NNW,338,2.0,4.6,49,0.00,,,0.89,WUHU216TE923,2013-04-19 21:50:00,
2013-04-19 17:55:00,54.1,34.8,29.84,NE,45,2.2,4.6,48,0.00,,,0.89,WUHU216TE923,2013-04-19 21:55:00,
2013-04-19 18:00:00,54.1,35.3,29.84,NNE,23,2.3,6.9,49,0.00,,,0.89,WUHU216TE923,2013-04-19 22:00:00,
2013-04-19 18:05:00,53.8,35.0,29.85,NNE,23,2.8,6.9,49,0.00,,,0.89,WUHU216TE923,2013-04-19 22:05:00,
2013-04-19 18:10:00,53.6,34.9,29.85,NNE,23,2.6,3.0,49,0.00,,,0.89,WUHU216TE923,2013-04-19 22:10:00,
2013-04-19 18:15:00,53.2,34.5,29.85,NW,315,2.0,3.0,49,0.00,,,0.89,WUHU216TE923,2013-04-19 22:15:00,
2013-04-19 18:20:00,53.4,35.2,29.85,NNW,338,1.8,2.0,50,0.00,,,0.89,WUHU216TE923,2013-04-19 22:20:00,
2013-04-19 18:25:00,53.2,35.0,29.85,NNE,23,1.0,1.9,50,0.00,,,0.89,WUHU216TE923,2013-04-19 22:25:00,
2013-04-19 18:30:00,53.1,34.4,29.85,NNE,23,0.7,1.4,49,0.00,,,0.89,WUHU216TE923,2013-04-19 22:30:00,
2013-04-19 18:35:00,53.1,35.4,29.85,NW,315,0.4,1.4,51,0.00,,,0.89,WUHU216TE923,2013-04-19 22:35:00,
2013-04-19 18:40:00,52.9,35.3,29.85,NNE,23,0.8,2.2,51,0.00,,,0.89,WUHU216TE923,2013-04-19 22:40:00,
2013-04-19 18:45:00,53.2,34.5,29.85,NE,45,0.8,2.2,49,0.00,,,0.89,WUHU216TE923,2013-04-19 22:45:00,
2013-04-19 18:50:00,53.4,35.2,29.85,NNE,23,1.0,2.8,50,0.00,,,0.89,WUHU216TE923,2013-04-19 22:50:00,
2013-04-19 18:55:00,52.7,34.0,29.85,WSW,248,1.5,2.8,49,0.00,,,0.89,WUHU216TE923,2013-04-19 22:55:00,
2013-04-19 19:01:00,52.3,33.7,29.85,WSW,248,1.4,2.0,49,0.00,,,0.89,WUHU216TE923,2013-04-19 23:01:00,
2013-04-19 19:05:00,52.0,32.9,29.88,SSE,158,1.5,1.6,48,0.00,,,0.89,WUHU216TE923,2013-04-19 23:05:00,
2013-04-19 19:10:00,52.2,33.6,29.88,NNW,338,1.4,1.6,49,0.00,,,0.89,WUHU216TE923,2013-04-19 23:10:00,
2013-04-19 19:16:00,52.2,33.6,29.88,West,270,1.3,2.1,49,0.00,,,0.89,WUHU216TE923,2013-04-19 23:16:00,
2013-04-19 19:21:00,51.6,33.0,29.88,NNW,338,1.3,2.1,49,0.00,,,0.89,WUHU216TE923,2013-04-19 23:21:00,
2013-04-19 19:26:00,51.1,32.6,29.88,NW,315,1.3,1.3,49,0.00,,,0.89,WUHU216TE923,2013-04-19 23:26:00,
2013-04-19 19:31:00,50.9,32.4,29.88,NNE,23,0.9,1.4,49,0.00,,,0.89,WUHU216TE923,2013-04-19 23:31:00,
2013-04-19 19:36:00,50.5,32.5,29.88,North,0,0.9,1.8,50,0.00,,,0.89,WUHU216TE923,2013-04-19 23:36:00,
2013-04-19 19:41:00,50.4,32.4,29.88,West,270,1.1,1.8,50,0.00,,,0.89,WUHU216TE923,2013-04-19 23:41:00,
2013-04-19 19:46:00,50.4,32.4,29.87,SW,225,1.3,1.3,50,0.00,,,0.89,WUHU216TE923,2013-04-19 23:46:00,
2013-04-19 19:50:00,50.2,32.8,29.87,NNE,23,1.5,1.5,51,0.00,,,0.89,WUHU216TE923,2013-04-19 23:50:00,
2013-04-19 19:56:00,50.0,32.6,29.87,SW,225,1.0,1.5,51,0.00,,,0.89,WUHU216TE923,2013-04-19 23:56:00,
2013-04-19 20:01:00,50.0,32.6,29.87,NW,315,0.8,1.7,51,0.00,,,0.89,WUHU216TE923,2013-04-20 00:01:00,
2013-04-19 20:06:00,49.6,32.2,29.88,NNE,23,0.8,1.7,51,0.00,,,0.89,WUHU216TE923,2013-04-20 00:06:00,
2013-04-19 20:11:00,49.5,32.1,29.88,NNW,338,0.9,0.9,51,0.00,,,0.89,WUHU216TE923,2013-04-20 00:11:00,
2013-04-19 20:16:00,49.1,31.7,29.88,NNE,23,0.4,3.4,51,0.00,,,0.89,WUHU216TE923,2013-04-20 00:16:00,
2013-04-19 20:21:00,48.9,32.0,29.88,West,270,0.3,3.4,52,0.00,,,0.89,WUHU216TE923,2013-04-20 00:21:00,
2013-04-19 20:26:00,48.7,32.3,29.87,South,180,0.5,0.5,53,0.00,,,0.89,WUHU216TE923,2013-04-20 00:26:00,
2013-04-19 20:31:00,48.7,32.3,29.87,NNW,338,0.5,2.2,53,0.00,,,0.89,WUHU216TE923,2013-04-20 00:31:00,
2013-04-19 20:36:00,48.4,32.1,29.87,SE,135,0.7,2.2,53,0.00,,,0.89,WUHU216TE923,2013-04-20 00:36:00,
2013-04-19 20:41:00,48.4,32.1,29.87,NNE,23,0.7,1.5,53,0.00,,,0.89,WUHU216TE923,2013-04-20 00:41:00,
2013-04-19 20:46:00,48.2,31.9,29.89,NE,45,0.7,1.4,53,0.00,,,0.89,WUHU216TE923,2013-04-20 00:46:00,
2013-04-19 20:51:00,48.2,31.9,29.89,NNE,23,0.6,1.7,53,0.00,,,0.89,WUHU216TE923,2013-04-20 00:51:00,
2013-04-19 20:56:00,48.2,31.9,29.89,SE,135,1.1,1.7,53,0.00,,,0.89,WUHU216TE923,2013-04-20 00:56:00,
2013-04-19 21:01:00,48.2,31.9,29.89,ENE,68,1.3,2.5,53,0.00,,,0.89,WUHU216TE923,2013-04-20 01:01:00,
2013-04-19 21:06:00,48.0,31.7,29.93,North,0,1.4,4.5,53,0.00,,,0.89,WUHU216TE923,2013-04-20 01:06:00,
2013-04-19 21:11:00,47.8,31.5,29.93,East,90,1.8,4.5,53,0.00,,,0.89,WUHU216TE923,2013-04-20 01:11:00,
2013-04-19 21:16:00,47.7,31.4,29.93,NNE,23,1.8,3.4,53,0.00,,,0.89,WUHU216TE923,2013-04-20 01:16:00,
2013-04-19 21:21:00,47.3,30.6,29.93,NE,45,2.0,3.9,52,0.00,,,0.89,WUHU216TE923,2013-04-20 01:21:00,
2013-04-19 21:26:00,46.9,30.2,29.93,ENE,68,2.1,3.9,52,0.00,,,0.89,WUHU216TE923,2013-04-20 01:26:00,
2013-04-19 21:31:00,46.8,29.6,29.93,West,270,1.2,2.1,51,0.00,,,0.89,WUHU216TE923,2013-04-20 01:31:00,
2013-04-19 21:36:00,46.6,29.9,29.93,ESE,113,0.5,1.2,52,0.00,,,0.89,WUHU216TE923,2013-04-20 01:36:00,
2013-04-19 21:41:00,46.4,28.7,29.93,NNE,23,0.6,0.6,50,0.00,,,0.89,WUHU216TE923,2013-04-20 01:41:00,
2013-04-19 21:46:00,46.2,29.5,29.93,NW,315,0.6,2.0,52,0.00,,,0.89,WUHU216TE923,2013-04-20 01:46:00,
2013-04-19 21:51:00,45.9,29.3,29.93,NNE,23,0.4,2.0,52,0.00,,,0.89,WUHU216TE923,2013-04-20 01:51:00,
2013-04-19 21:56:00,45.7,29.5,29.93,South,180,0.6,2.1,53,0.00,,,0.89,WUHU216TE923,2013-04-20 01:56:00,
2013-04-19 22:01:00,45.3,29.2,29.93,West,270,0.5,2.1,53,0.00,,,0.89,WUHU216TE923,2013-04-20 02:01:00,
2013-04-19 22:06:00,45.3,29.2,29.95,NW,315,0.8,0.8,53,0.00,,,0.89,WUHU216TE923,2013-04-20 02:06:00,
2013-04-19 22:11:00,45.3,29.2,29.95,NNE,23,0.6,0.8,53,0.00,,,0.89,WUHU216TE923,2013-04-20 02:11:00,
2013-04-19 22:16:00,45.3,29.2,29.95,NNE,23,0.6,0.6,53,0.00,,,0.89,WUHU216TE923,2013-04-20 02:16:00,
2013-04-19 22:21:00,45.3,29.2,29.95,NNE,23,0.4,0.4,53,0.00,,,0.89,WUHU216TE923,2013-04-20 02:21:00,
2013-04-19 22:26:00,45.1,29.5,29.95,East,90,0.1,0.4,54,0.00,,,0.89,WUHU216TE923,2013-04-20 02:26:00,
2013-04-19 22:31:00,45.3,30.1,29.95,NNE,23,0.4,0.4,55,0.00,,,0.89,WUHU216TE923,2013-04-20 02:31:00,
2013-04-19 22:36:00,45.1,29.9,29.95,East,90,0.6,0.6,55,0.00,,,0.89,WUHU216TE923,2013-04-20 02:36:00,
2013-04-19 22:41:00,45.1,29.9,29.95,NNE,23,0.3,2.1,55,0.00,,,0.89,WUHU216TE923,2013-04-20 02:41:00,
2013-04-19 22:46:00,45.1,29.9,30.00,NNE,23,1.0,2.1,55,0.00,,,0.89,WUHU216TE923,2013-04-20 02:46:00,
2013-04-19 22:51:00,45.0,30.3,30.00,NNE,23,1.3,3.3,56,0.00,,,0.89,WUHU216TE923,2013-04-20 02:51:00,
2013-04-19 22:56:00,44.8,29.6,30.00,NE,45,0.9,3.3,55,0.00,,,0.89,WUHU216TE923,2013-04-20 02:56:00,
2013-04-19 23:01:00,44.8,29.6,30.00,NNE,23,0.9,2.3,55,0.00,,,0.89,WUHU216TE923,2013-04-20 03:01:00,
2013-04-19 23:06:00,44.6,29.5,29.98,ENE,68,0.4,1.4,55,0.00,,,0.89,WUHU216TE923,2013-04-20 03:06:00,
2013-04-19 23:11:00,44.4,29.3,29.98,NNE,23,0.7,4.6,55,0.00,,,0.89,WUHU216TE923,2013-04-20 03:11:00,
2013-04-19 23:16:00,44.4,29.3,29.98,NNW,338,1.3,4.6,55,0.00,,,0.89,WUHU216TE923,2013-04-20 03:16:00,
2013-04-19 23:21:00,44.2,29.5,29.98,NE,45,1.5,3.7,56,0.00,,,0.89,WUHU216TE923,2013-04-20 03:21:00,
2013-04-19 23:26:00,44.1,29.4,29.97,NW,315,1.5,3.7,56,0.00,,,0.89,WUHU216TE923,2013-04-20 03:26:00,
2013-04-19 23:31:00,43.9,29.2,29.97,NNW,338,1.5,1.9,56,0.00,,,0.89,WUHU216TE923,2013-04-20 03:31:00,
2013-04-19 23:36:00,43.9,29.2,29.97,NE,45,1.3,1.8,56,0.00,,,0.89,WUHU216TE923,2013-04-20 03:36:00,
2013-04-19 23:41:00,43.7,28.6,29.97,NNE,23,1.7,3.0,55,0.00,,,0.89,WUHU216TE923,2013-04-20 03:41:00,
2013-04-19 23:46:00,43.5,28.4,29.97,NW,315,2.0,3.0,55,0.00,,,0.89,WUHU216TE923,2013-04-20 03:46:00,
2013-04-19 23:51:00,43.5,28.4,29.97,North,0,2.0,2.7,55,0.00,,,0.89,WUHU216TE923,2013-04-20 03:51:00,
2013-04-19 23:56:00,43.3,28.2,29.97,North,0,0.8,2.7,55,0.00,,,0.89,WUHU216TE923,2013-04-20 03:56:00,